Showing default

BEIDOU 11, 38091

Orbit data source: Space-Track

BEIDOU 11, 38091 is a payload satellite owned by CNSA (CN) in GEO that was launched on Fri, 24 Feb 2012 UTC via a CHANG ZHENG 3C launch vehicle from the Xichang Space Center, China (XSC). Payload-class satellites include a variety of spacecraft equipped with specific instruments for various scientific and technological missions. These include communications satellites like Starlink; space stations such as the ISS; scientific satellites like the Hubble; Earth observation satellites from companies like Planet Labs, Umbra, and HawkEye 360; GPS; miniature CubeSats for education and research; and military/defense satellites.

Not visible in the next 10 days
Identifier
38091, 2012-008A
Orbit
GEO
Last TLE update
14 hours ago
Origin
Manufacturer
CAST
Mission
Operational Defense Navigation
Bus & Motor
DFH-3B, FY-25
Mass
3,060 kg wet, 1,700 kg dry
Launch date (UTC)
2012-02-24 (13 years ago)
Launch vehicle
CHANG ZHENG 3C
Launch site
Xichang Space Center, China (XSC)
Object type
Payload
Rocket body
Debris
Shape & HBR
Box + 2 Pan, 18 m
Radar Cross Section
13.998 m², Large (>1 m²)

Expand to show TLE details & history

TLE from 14 hours ago
0 BEIDOU 11
1 38091U 12008A   25181.82336413  .00000056  00000-0  00000-0 0  9990
2 38091   2.6976  71.2536 0007413 266.5361 296.4426  1.00274313 48849
Epoch: 2025-06-30T19:45Z
TLE epoch observation values (Epoch: 2025-06-30T19:45:38.66Z)
Latitude
-1.06864°
Longitude
58.61116°
Altitude
35,771.527 km
Speed
3.076 km/s
True Right ascension
18h 16m 35s
True Declination
-1° 04' 03"
Sunlit
Object was in daylight at epoch
Visualization orbit readout
Latitude
2.18207°
Longitude
-91.09412°
Altitude
35,811.208 km
Speed
3.073 km/s
Apparent Right ascension
08h 24m 26s
Apparent Declination
-3° 00' 40"
Sunlit
Object is in daylight
Visualization observer readout
Local Sidereal Time
21:22:23
Azimuth
23.299° NE
Elevation
-50.83°
Doppler factor
1
Orbital elements
Apogee altitude
35,818.21 km
Perigee altitude
35,755.696 km
Semi-major axis
42,165.09 km
Eccentricity
0.00074
Inclination
2.6976°
RAAN
71.2536°
Arg. of periapsis
266.5361°
True anomaly
Unknown
Mean anomaly
296.4426°
Eccentric anomaly
Unknown
Mean motion
0.25068 °/min
Orbital period
1,436.11 mins
BSTAR
0
Loading historical data...
38091 neighbors
Loading maneuver chart data...
Loading SW <> Apogee altitude chart data...
Loading historical data...
Loading historical data...
Loading historical data...
Loading historical data...
Loading historical data...
Loading historical data...
Loading historical data...

BEIDOU 11 Visibility

Observer location: undefined°, undefined°

BEIDOU 11 is likely not visible in the next few days
Span
Click to sort rows by Start time (UTC) header in descending order
Start Az.
Max El. time (UTC)
Max El. Az.
Max El.
End time (UTC)
End Az.
|